TimePDT,TemperatureF,Dew PointF,Humidity,Sea Level PressureIn,VisibilityMPH,Wind Direction,Wind SpeedMPH,Gust SpeedMPH,PrecipitationIn,Events,Conditions,WindDirDegrees,DateUTC
12:55 AM,48.9,37.9,66,30.21,10.0,Calm,Calm,-,N/A,,Clear,0,2013-10-17 07:55:00
1:55 AM,48.9,37.9,66,30.21,10.0,NW,8.1,-,N/A,,Clear,320,2013-10-17 08:55:00
2:55 AM,46.9,37.9,71,30.21,9.0,WNW,9.2,-,N/A,,Clear,290,2013-10-17 09:55:00
3:55 AM,44.1,37.0,76,30.22,10.0,NW,4.6,-,N/A,,Clear,320,2013-10-17 10:55:00
4:55 AM,42.1,37.9,85,30.23,10.0,Calm,Calm,-,N/A,,Clear,0,2013-10-17 11:55:00
5:55 AM,39.9,35.1,83,30.26,10.0,Calm,Calm,-,N/A,,Clear,0,2013-10-17 12:55:00
6:55 AM,39.9,36.0,86,30.27,10.0,Calm,Calm,-,N/A,,Clear,0,2013-10-17 13:55:00
7:55 AM,39.9,36.0,86,30.29,10.0,NW,4.6,-,N/A,,Clear,310,2013-10-17 14:55:00
8:55 AM,45.0,37.9,76,30.28,10.0,NW,6.9,-,N/A,,Clear,320,2013-10-17 15:55:00
9:55 AM,46.0,37.0,71,30.29,10.0,West,6.9,-,N/A,,Clear,260,2013-10-17 16:55:00
10:55 AM,50.0,39.0,66,30.29,10.0,West,4.6,-,N/A,,Clear,270,2013-10-17 17:55:00
11:55 AM,54.0,39.0,57,30.28,10.0,WNW,3.5,-,N/A,,Clear,290,2013-10-17 18:55:00
12:55 PM,57.0,37.9,49,30.27,10.0,Calm,Calm,-,N/A,,Clear,0,2013-10-17 19:55:00
1:55 PM,61.0,37.9,42,30.25,10.0,Calm,Calm,-,N/A,,Clear,0,2013-10-17 20:55:00
2:55 PM,63.0,37.0,38,30.23,10.0,Calm,Calm,-,N/A,,Clear,0,2013-10-17 21:55:00
3:55 PM,64.0,35.1,34,30.22,10.0,Calm,Calm,-,N/A,,Clear,0,2013-10-17 22:55:00
4:55 PM,64.0,36.0,35,30.22,10.0,ESE,3.5,-,N/A,,Clear,110,2013-10-17 23:55:00
5:55 PM,61.0,37.0,41,30.22,10.0,Calm,Calm,-,N/A,,Clear,0,2013-10-18 00:55:00
6:55 PM,57.0,37.0,47,30.24,10.0,Calm,Calm,-,N/A,,Clear,0,2013-10-18 01:55:00
7:55 PM,53.1,36.0,52,30.25,10.0,NW,4.6,-,N/A,,Clear,320,2013-10-18 02:55:00
8:55 PM,53.1,35.1,50,30.26,10.0,WNW,4.6,-,N/A,,Clear,300,2013-10-18 03:55:00
9:55 PM,48.9,34.0,56,30.26,10.0,North,3.5,-,N/A,,Clear,350,2013-10-18 04:55:00
10:55 PM,48.9,37.0,64,30.26,10.0,WNW,5.8,-,N/A,,Clear,300,2013-10-18 05:55:00
11:55 PM,48.0,37.0,66,30.27,10.0,WNW,6.9,-,N/A,,Clear,300,2013-10-18 06:55:00